Schneifelwetter: Wetterstation Hallschlag, 537 m . NN
Wetterdaten: Montag, 01.02.2010
Datum Zeit Temp. A. Feuchte A. Luftdruck Regen Wind Richtung Richtung Sonnenschein Helligkeit T Regen Taupunkt Windchill
01.02.2010 00:08 -4,2 C 97 % 1004 hPa 0,0 l/m 26,5 km/h (4 Bft) W-SW45 250 0 min 0 lux 0,00 min -4,6 C -18,0 C
01.02.2010 00:24 -4,0 C 97 % 1004 hPa 0,0 l/m 33,2 km/h (5 Bft) SW45 235 0 min 0 lux 0,00 min -4,4 C -20,1 C
01.02.2010 00:39 -4,0 C 97 % 1004 hPa 0,0 l/m 35,7 km/h (5 Bft) W-SW22.5 255 0 min 0 lux 0,00 min -4,4 C -20,8 C
01.02.2010 00:54 -4,0 C 97 % 1004 hPa 0,0 l/m 35,4 km/h (5 Bft) W-SW45 250 0 min 0 lux 0,00 min -4,4 C -20,7 C
01.02.2010 01:09 -4,0 C 97 % 1004 hPa 0,0 l/m 37,9 km/h (5 Bft) W-SW22.5 255 0 min 0 lux 0,00 min -4,4 C -21,4 C
01.02.2010 01:24 -3,9 C 97 % 1004 hPa 0,0 l/m 34,0 km/h (5 Bft) W-SW22.5 250 0 min 0 lux 0,00 min -4,3 C -20,2 C
01.02.2010 01:39 -3,9 C 97 % 1004 hPa 0,0 l/m 34,4 km/h (5 Bft) W-SW22.5 255 0 min 0 lux 0,00 min -4,3 C -20,3 C
01.02.2010 01:54 -4,0 C 97 % 1004 hPa 0,0 l/m 39,6 km/h (6 Bft) W-SW22.5 255 0 min 0 lux 0,00 min -4,4 C -21,8 C
01.02.2010 02:09 -4,2 C 96 % 1004 hPa 0,0 l/m 35,5 km/h (5 Bft) W-SW45 250 0 min 0 lux 0,00 min -4,7 C -21,0 C
01.02.2010 02:24 -4,2 C 96 % 1004 hPa 0,0 l/m 27,5 km/h (4 Bft) W-SW22.5 240 0 min 0 lux 0,00 min -4,7 C -18,4 C
01.02.2010 02:39 -4,3 C 96 % 1004 hPa 0,0 l/m 24,6 km/h (4 Bft) SW45 230 0 min 0 lux 0,00 min -4,8 C -17,4 C
01.02.2010 02:54 -4,4 C 97 % 1004 hPa 0,0 l/m 22,9 km/h (4 Bft) SW22.5 235 0 min 0 lux 0,00 min -4,8 C -16,8 C
01.02.2010 03:09 -4,3 C 97 % 1004 hPa 0,0 l/m 25,5 km/h (4 Bft) W-SW45 245 0 min 0 lux 0,00 min -4,7 C -17,8 C
01.02.2010 03:24 -4,2 C 97 % 1004 hPa 0,0 l/m 32,0 km/h (5 Bft) W-SW45 245 0 min 0 lux 0,00 min -4,6 C -20,0 C
01.02.2010 03:39 -4,1 C 97 % 1004 hPa 0,0 l/m 27,5 km/h (4 Bft) SW45 230 0 min 0 lux 0,00 min -4,5 C -18,3 C
01.02.2010 03:54 -4,0 C 97 % 1004 hPa 0,0 l/m 26,8 km/h (4 Bft) W-SW22.5 245 0 min 0 lux 0,00 min -4,4 C -17,9 C
01.02.2010 04:09 -4,0 C 97 % 1004 hPa 0,0 l/m 23,9 km/h (4 Bft) SW45 235 0 min 0 lux 0,00 min -4,4 C -16,7 C
01.02.2010 04:24 -3,9 C 97 % 1004 hPa 0,0 l/m 24,3 km/h (4 Bft) SW45 230 0 min 0 lux 0,00 min -4,3 C -16,7 C
01.02.2010 04:39 -3,8 C 97 % 1004 hPa 0,0 l/m 27,2 km/h (4 Bft) W-SW22.5 240 0 min 0 lux 0,00 min -4,2 C -17,7 C
01.02.2010 04:54 -3,8 C 97 % 1004 hPa 0,0 l/m 29,0 km/h (5 Bft) W-SW22.5 245 0 min 0 lux 0,00 min -4,2 C -18,4 C
01.02.2010 05:09 -3,8 C 97 % 1004 hPa 0,0 l/m 25,0 km/h (4 Bft) SW45 225 0 min 0 lux 0,00 min -4,2 C -16,9 C
01.02.2010 05:24 -3,8 C 97 % 1004 hPa 0,0 l/m 25,5 km/h (4 Bft) SW45 220 0 min 0 lux 0,00 min -4,2 C -17,1 C
01.02.2010 05:39 -3,7 C 97 % 1004 hPa 0,0 l/m 24,5 km/h (4 Bft) SW45 225 0 min 0 lux 0,00 min -4,1 C -16,5 C
01.02.2010 05:54 -3,8 C 97 % 1004 hPa 0,0 l/m 24,5 km/h (4 Bft) SW22.5 225 0 min 0 lux 0,00 min -4,2 C -16,7 C
01.02.2010 06:09 -3,8 C 97 % 1004 hPa 0,0 l/m 35,4 km/h (5 Bft) W-SW22.5 240 0 min 0 lux 0,00 min -4,2 C -20,4 C
01.02.2010 06:24 -3,8 C 97 % 1004 hPa 0,0 l/m 30,4 km/h (5 Bft) SW45 235 0 min 0 lux 0,00 min -4,2 C -18,9 C
01.02.2010 06:39 -3,8 C 97 % 1004 hPa 0,0 l/m 25,6 km/h (4 Bft) SW45 235 0 min 0 lux 0,00 min -4,2 C -17,1 C
01.02.2010 06:54 -3,8 C 97 % 1004 hPa 0,0 l/m 24,3 km/h (4 Bft) W-SW22.5 245 0 min 0 lux 0,00 min -4,2 C -16,6 C
01.02.2010 07:15 -3,8 C 97 % 1004 hPa 0,0 l/m 19,7 km/h (3 Bft) W-SW45 250 0 min 0 lux 0,00 min -4,2 C -14,4 C
01.02.2010 07:30 -3,8 C 97 % 1004 hPa 0,3 l/m 18,9 km/h (3 Bft) SW22.5 235 0 min 0 lux 15,00 min -4,2 C -14,0 C
01.02.2010 07:45 -3,8 C 97 % 1004 hPa 0,0 l/m 14,5 km/h (3 Bft) W-SW45 240 0 min 0 lux 0,00 min -4,2 C -11,2 C
01.02.2010 08:00 -3,8 C 97 % 1004 hPa 0,0 l/m 22,5 km/h (4 Bft) W-SW22.5 240 0 min 73 lux 0,00 min -4,2 C -15,8 C
01.02.2010 08:15 -3,8 C 97 % 1004 hPa 0,0 l/m 24,9 km/h (4 Bft) SW22.5 230 0 min 349 lux 0,00 min -4,2 C -16,8 C
01.02.2010 08:30 -3,8 C 97 % 1004 hPa 0,0 l/m 28,8 km/h (4 Bft) W-SW22.5 245 0 min 667 lux 0,00 min -4,2 C -18,3 C
01.02.2010 08:45 -3,8 C 97 % 1004 hPa 0,0 l/m 27,7 km/h (4 Bft) W-SW22.5 255 0 min 1,60 klux 0,00 min -4,2 C -17,9 C
01.02.2010 09:00 -3,8 C 97 % 1004 hPa 0,0 l/m 26,0 km/h (4 Bft) W-SW45 240 0 min 1,88 klux 0,00 min -4,2 C -17,3 C
01.02.2010 09:15 -3,7 C 97 % 1004 hPa 0,0 l/m 24,1 km/h (4 Bft) SW22.5 235 0 min 3,73 klux 0,00 min -4,1 C -16,4 C
01.02.2010 09:30 -3,6 C 97 % 1004 hPa 0,0 l/m 22,8 km/h (4 Bft) W-SW45 250 0 min 6,65 klux 0,00 min -4,0 C -15,6 C
01.02.2010 09:45 -3,4 C 97 % 1005 hPa 0,0 l/m 23,1 km/h (4 Bft) W-SW22.5 250 0 min 9,3 klux 0,00 min -3,8 C -15,5 C
01.02.2010 10:00 -3,3 C 96 % 1004 hPa 0,0 l/m 20,5 km/h (4 Bft) SW22.5 230 0 min 7,20 klux 0,00 min -3,8 C -14,1 C
01.02.2010 10:15 -3,2 C 96 % 1005 hPa 0,0 l/m 25,8 km/h (4 Bft) SW45 225 0 min 14,6 klux 0,00 min -3,7 C -16,4 C
01.02.2010 10:30 -2,8 C 96 % 1004 hPa 0,0 l/m 24,8 km/h (4 Bft) SW45 225 0 min 19,0 klux 0,00 min -3,3 C -15,4 C
01.02.2010 10:45 -2,6 C 95 % 1005 hPa 0,0 l/m 25,0 km/h (4 Bft) W-SW22.5 255 0 min 15,1 klux 0,00 min -3,3 C -15,2 C
01.02.2010 11:00 -2,5 C 95 % 1005 hPa 0,0 l/m 23,2 km/h (4 Bft) W-SW22.5 255 0 min 17,1 klux 0,00 min -3,2 C -14,4 C
01.02.2010 11:15 -1,9 C 95 % 1005 hPa 0,0 l/m 18,4 km/h (3 Bft) W22.5 260 15 min 50,5 klux 0,00 min -2,6 C -11,3 C
01.02.2010 11:30 -1,4 C 94 % 1005 hPa 0,0 l/m 17,6 km/h (3 Bft) W-SW22.5 255 15 min 27,8 klux 0,00 min -2,2 C -10,2 C
01.02.2010 11:45 -0,9 C 93 % 1005 hPa 0,3 l/m 30,0 km/h (5 Bft) W45 265 15 min 52,2 klux 15,00 min -1,9 C -14,7 C
01.02.2010 11:59 -0,4 C 91 % 1005 hPa 0,0 l/m 23,1 km/h (4 Bft) W22.5 260 14 min 62,8 klux 0,00 min -1,7 C -11,5 C
01.02.2010 12:15 -0,4 C 90 % 1005 hPa 0,0 l/m 22,5 km/h (4 Bft) W-SW22.5 255 16 min 29,4 klux 0,00 min -1,8 C -11,3 C
01.02.2010 12:30 -0,9 C 89 % 1005 hPa 0,0 l/m 21,1 km/h (4 Bft) W45 270 0 min 24,4 klux 0,00 min -2,5 C -11,3 C
01.02.2010 12:45 -0,6 C 89 % 1005 hPa 0,0 l/m 28,0 km/h (4 Bft) W22.5 260 15 min 35,0 klux 0,00 min -2,2 C -13,6 C
01.02.2010 13:00 -0,4 C 88 % 1005 hPa 0,0 l/m 27,1 km/h (4 Bft) W45 260 15 min 39,5 klux 0,00 min -2,1 C -13,0 C
01.02.2010 13:15 -0,3 C 89 % 1005 hPa 0,0 l/m 28,1 km/h (4 Bft) W-SW22.5 255 15 min 46,4 klux 0,00 min -1,9 C -13,2 C
01.02.2010 13:30 -0,6 C 89 % 1005 hPa 0,0 l/m 21,2 km/h (4 Bft) W22.5 265 0 min 25,0 klux 0,00 min -2,2 C -11,0 C
01.02.2010 13:44 -0,8 C 88 % 1005 hPa 0,0 l/m 31,5 km/h (5 Bft) W22.5 260 14 min 27,7 klux 0,00 min -2,5 C -15,0 C
01.02.2010 14:00 -0,9 C 89 % 1005 hPa 0,0 l/m 29,2 km/h (5 Bft) W22.5 270 0 min 16,1 klux 0,00 min -2,5 C -14,4 C
01.02.2010 14:15 -1,0 C 89 % 1005 hPa 0,0 l/m 30,3 km/h (5 Bft) W22.5 260 0 min 19,7 klux 0,00 min -2,6 C -14,9 C
01.02.2010 14:30 -1,3 C 90 % 1006 hPa 0,0 l/m 23,5 km/h (4 Bft) W-SW22.5 255 0 min 15,4 klux 0,00 min -2,7 C -12,9 C
01.02.2010 14:45 -1,4 C 91 % 1006 hPa 0,0 l/m 27,7 km/h (4 Bft) W22.5 265 0 min 10,1 klux 0,00 min -2,7 C -14,6 C
01.02.2010 15:00 -1,5 C 91 % 1006 hPa 0,0 l/m 32,7 km/h (5 Bft) W45 265 0 min 14,6 klux 0,00 min -2,8 C -16,3 C
01.02.2010 15:15 -1,6 C 92 % 1006 hPa 0,0 l/m 27,1 km/h (4 Bft) W45 265 0 min 10,8 klux 0,00 min -2,7 C -14,7 C
01.02.2010 15:30 -1,7 C 92 % 1006 hPa 0,0 l/m 32,2 km/h (5 Bft) W22.5 265 0 min 10,5 klux 0,00 min -2,8 C -16,5 C
01.02.2010 15:45 -1,6 C 92 % 1006 hPa 0,0 l/m 37,5 km/h (5 Bft) W45 260 0 min 9,2 klux 0,00 min -2,7 C -17,7 C
01.02.2010 16:00 -1,5 C 92 % 1006 hPa 0,0 l/m 32,1 km/h (5 Bft) W45 260 0 min 14,9 klux 0,00 min -2,6 C -16,2 C
01.02.2010 16:15 -1,7 C 93 % 1007 hPa 0,0 l/m 28,5 km/h (4 Bft) W22.5 260 0 min 4,97 klux 0,00 min -2,7 C -15,3 C
01.02.2010 16:30 -1,9 C 94 % 1007 hPa 0,0 l/m 43,2 km/h (6 Bft) W-SW22.5 255 0 min 4,37 klux 0,00 min -2,7 C -19,4 C
01.02.2010 16:45 -1,8 C 94 % 1007 hPa 0,0 l/m 37,7 km/h (5 Bft) W22.5 260 0 min 9,3 klux 0,00 min -2,6 C -18,1 C
01.02.2010 16:59 -1,8 C 93 % 1007 hPa 0,0 l/m 33,0 km/h (5 Bft) W45 260 0 min 6,19 klux 0,00 min -2,8 C -16,8 C
01.02.2010 17:15 -1,9 C 94 % 1007 hPa 0,0 l/m 37,4 km/h (5 Bft) W22.5 265 0 min 2,67 klux 0,00 min -2,7 C -18,2 C
01.02.2010 17:30 -2,0 C 94 % 1008 hPa 0,0 l/m 38,4 km/h (5 Bft) W22.5 260 0 min 1,86 klux 0,00 min -2,8 C -18,5 C
01.02.2010 17:45 -2,2 C 95 % 1008 hPa 0,0 l/m 36,7 km/h (5 Bft) W-SW22.5 255 0 min 267 lux 0,00 min -2,9 C -18,4 C
01.02.2010 18:00 -2,2 C 95 % 1008 hPa 0,0 l/m 31,6 km/h (5 Bft) W22.5 260 0 min 38 lux 0,00 min -2,9 C -17,0 C
01.02.2010 18:15 -2,4 C 95 % 1008 hPa 0,0 l/m 30,9 km/h (5 Bft) W22.5 260 0 min 4 lux 0,00 min -3,1 C -17,1 C
01.02.2010 18:30 -2,3 C 95 % 1008 hPa 0,0 l/m 23,8 km/h (4 Bft) W22.5 260 0 min 0 lux 0,00 min -3,0 C -14,3 C
01.02.2010 18:45 -2,4 C 96 % 1008 hPa 0,0 l/m 22,1 km/h (4 Bft) W22.5 270 0 min 0 lux 0,00 min -2,9 C -13,7 C
01.02.2010 19:00 -2,4 C 96 % 1009 hPa 0,0 l/m 25,7 km/h (4 Bft) W22.5 265 0 min 0 lux 0,00 min -2,9 C -15,2 C
01.02.2010 19:15 -2,4 C 97 % 1009 hPa 0,0 l/m 32,1 km/h (5 Bft) W45 260 0 min 0 lux 0,00 min -2,8 C -17,4 C
01.02.2010 19:30 -2,3 C 96 % 1009 hPa 0,0 l/m 28,1 km/h (4 Bft) W45 260 0 min 0 lux 0,00 min -2,8 C -16,0 C
01.02.2010 19:45 -2,2 C 96 % 1009 hPa 0,0 l/m 31,0 km/h (5 Bft) W22.5 260 0 min 0 lux 0,00 min -2,7 C -16,8 C
01.02.2010 20:00 -2,3 C 95 % 1009 hPa 0,0 l/m 34,8 km/h (5 Bft) W22.5 260 0 min 0 lux 0,00 min -3,0 C -18,1 C
01.02.2010 20:15 -2,4 C 95 % 1010 hPa 0,0 l/m 24,3 km/h (4 Bft) W45 265 0 min 0 lux 0,00 min -3,1 C -14,7 C
01.02.2010 20:30 -2,3 C 95 % 1010 hPa 1,8 l/m 27,5 km/h (4 Bft) W45 265 0 min 0 lux 15,00 min -3,0 C -15,8 C
01.02.2010 20:45 -2,3 C 95 % 1010 hPa 0,0 l/m 28,5 km/h (4 Bft) W22.5 260 0 min 0 lux 0,00 min -3,0 C -16,1 C
01.02.2010 21:00 -2,2 C 95 % 1010 hPa 0,0 l/m 29,8 km/h (5 Bft) W45 270 0 min 0 lux 0,00 min -2,9 C -16,4 C
01.02.2010 21:15 -2,2 C 95 % 1010 hPa 0,0 l/m 33,5 km/h (5 Bft) W45 270 0 min 0 lux 0,00 min -2,9 C -17,6 C
01.02.2010 21:30 -2,2 C 95 % 1010 hPa 0,0 l/m 30,0 km/h (5 Bft) W45 270 0 min 0 lux 0,00 min -2,9 C -16,5 C
01.02.2010 21:45 -2,2 C 95 % 1010 hPa 0,0 l/m 35,0 km/h (5 Bft) W45 270 0 min 0 lux 0,00 min -2,9 C -18,0 C
01.02.2010 21:59 -2,2 C 96 % 1010 hPa 0,0 l/m 24,3 km/h (4 Bft) W22.5 260 0 min 0 lux 0,00 min -2,7 C -14,4 C
01.02.2010 22:15 -2,4 C 95 % 1011 hPa 0,0 l/m 20,0 km/h (4 Bft) W45 275 0 min 0 lux 0,00 min -3,1 C -12,7 C
01.02.2010 22:30 -2,8 C 93 % 1011 hPa 0,3 l/m 30,1 km/h (5 Bft) W22.5 270 0 min 0 lux 15,00 min -3,8 C -17,4 C
01.02.2010 22:45 -3,0 C 94 % 1011 hPa 0,0 l/m 22,8 km/h (4 Bft) W45 270 0 min 0 lux 0,00 min -3,8 C -14,8 C
01.02.2010 23:00 -3,1 C 94 % 1011 hPa 0,0 l/m 20,0 km/h (4 Bft) W45 265 0 min 0 lux 0,00 min -3,9 C -13,6 C
01.02.2010 23:15 -3,4 C 94 % 1011 hPa 0,0 l/m 13,1 km/h (3 Bft) W22.5 270 0 min 0 lux 0,00 min -4,2 C -9,8 C
01.02.2010 23:30 -3,3 C 95 % 1011 hPa 0,0 l/m 10,1 km/h (2 Bft) W22.5 270 0 min 0 lux 0,00 min -4,0 C -7,2 C
01.02.2010 23:45 -3,2 C 95 % 1012 hPa 0,0 l/m 7,4 km/h (2 Bft) W-SW 245 0 min 0 lux 0,00 min -3,9 C -4,3 C
_ Min-Zeit 02:54 13:00 00:08 - 23:45 - - - - - 02:39 01:54
Minimum _ -4,4 C 88 % 1004 hPa - 7,4 km/h (2 Bft) - - - - - -4,8 C -21,8 C
_ Max-Zeit 13:15 00:08 23:45 20:30 16:30 - - 12:15 11:59 07:30 11:59 23:45
Maximum _ -0,3 C 97 % 1012 hPa 1,8 l/m 43,2 km/h
W-SW (6 Bft)
- - 16 min 62,8 klux 15,00 min -1,7 C -4,3 C
Durchschnitt _ -2,8 C 95 % 1006 hPa #2,7 l/m 27,4 km/h (4 Bft) W - #2:14 h 7,04 klux #1:00 h -3,5 C -16,0 C